Regional Weather Roundup
Issued by NWS

Home | Current Version | Previous Version | Text Only | Print | Product List | Glossary Off
Versions: 1 2 3 4 5 6 7 8 9 10 11 12 13 14 15 16 17 18 19 20 21 22 23 24 25 26 27 28 29 30 31 32 33 34 35 36 37 38 39 40 41 42 43 44 45 46 47 48 49 50

437
ASUS44 KLIX 230610
RWRLA
LOUISIANA WEATHER ROUNDUP
NATIONAL WEATHER SERVICE NEW ORLEANS LA
100 AM CDT WED JUL 23 2014

NOTE: "FAIR" INDICATES FEW OR NO CLOUDS BELOW 12,000 FEET WITH NO
      SIGNIFICANT WEATHER AND/OR OBSTRUCTIONS TO VISIBILITY.
      SKY/WX - SKY CONDITION AND SIGNIFICANT WEATHER.
      TMP - AIR TEMPERATURE.    DP   - DEWPOINT TEMPERATURE.
      RH  - RELATIVE HUMIDITY.  PRES - PRESSURE.
      HX  - HEAT INDEX.         WCI  - WIND CHILL INDEX.

*  THESE STATIONS ARE NOT NWS OR FAA STATIONS AND ARE NOT UNDER
   NWS QUALITY CONTROL.

LAZ040-048-061>063-065-066-069-230700-
SOUTHEAST LOUISIANA

CITY           SKY/WX    TMP DP  RH WIND       PRES   REMARKS
N.O. AUDUBON     N/A     81  72  75 MISG        N/A
6HR MIN TEMP:  79; 6HR MAX TEMP:  84;

N.O. INTL ARPT MOCLDY    79  70  74 E6        30.02F
6HR MIN TEMP:  78; 6HR MAX TEMP:  81;

N.O. LAKEFRONT MOCLDY    79  73  82 E8        30.02F
6HR MIN TEMP:  79; 6HR MAX TEMP:  83; 6HR PCP:  0.01;

N.O. DOWNTOWN* FAIR      81  70  69 CALM      30.03S
6HR MIN TEMP:  79; 6HR MAX TEMP:  84;

SLIDELL        MOCLDY    73  69  87 NE6       30.03F
6HR MIN TEMP:  73; 6HR MAX TEMP:  77; 6HR PCP: TRACE;

BATON ROUGE    CLEAR     73  71  93 NE7       30.03F
6HR MIN TEMP:  73; 6HR MAX TEMP:  81; 6HR PCP:  0.03;

BOOTHVILLE     MOCLDY    79  74  84 CALM      30.02F
6HR MIN TEMP:  77; 6HR MAX TEMP:  81;

BELLE CHASSE   MOCLDY    76  72  87 N3        30.01
6HR MIN TEMP:  76; 6HR MAX TEMP:  83;

BOGALUSA*        N/A     71  68  90 CALM      30.07S FOG
6HR MIN TEMP:  71; 6HR MAX TEMP:  75;

GALLIANO*      NOT AVBL
NEW ROADS*     FAIR      73  72  96 CALM      30.04S
6HR MIN TEMP:  73; 6HR MAX TEMP:  76;

GONZALES*      FAIR      77  76  99 N3        30.02S
6HR MIN TEMP:  75; 6HR MAX TEMP:  85;

HAMMOND*       PTCLDY    73  68  83 CALM      30.05F
HOUMA*         PTCLDY    76  71  85 CALM      30.01F
6HR MIN TEMP:  75; 6HR MAX TEMP:  83;

PORT FOURCHON* PTCLDY    82  75  78 S7G13     30.02F

$$

LAZ041-044-053-054-230700-
SOUTHWEST LOUISIANA

CITY           SKY/WX    TMP DP  RH WIND       PRES   REMARKS
LAKE CHARLES   PTCLDY    76  74  93 CALM      30.02S
6HR MIN TEMP:  76; 6HR MAX TEMP:  88;

LAFAYETTE      PTCLDY    76  72  87 N5        30.02S
6HR MIN TEMP:  76; 6HR MAX TEMP:  88;

PATTERSON      PTCLDY    77  75  94 E6        30.04F
6HR MIN TEMP:  77; 6HR MAX TEMP:  84;

SALT POINT       N/A     80  76  87 CALM      30.00S
6HR MIN TEMP:  80; 6HR MAX TEMP:  88;

NEW IBERIA     PTCLDY    77  72  84 NE6       30.02S
6HR MIN TEMP:  77; 6HR MAX TEMP:  89;

CHENAULT AIRPK CLEAR     77  72  85 CALM      30.03S
6HR MIN TEMP:  77; 6HR MAX TEMP:  87;


$$

LAZ027-028-230700-
CENTRAL LOUISIANA

CITY           SKY/WX    TMP DP  RH WIND       PRES   REMARKS
FORT POLK      CLEAR     77  72  84 E3        30.03F
6HR MIN TEMP:  77; 6HR MAX TEMP:  86;

ALEXANDRIA INT CLEAR     75  72  90 CALM      30.02S
6HR MIN TEMP:  74; 6HR MAX TEMP:  87; 6HR PCP: TRACE;

ALEXANDRIA     CLEAR     74  71  91 CALM      30.04S
6HR MIN TEMP:  74; 6HR MAX TEMP:  91; 6HR PCP:  0.01;


$$

LAZ001-002-230700-
NORTHWEST LOUISIANA

CITY           SKY/WX    TMP DP  RH WIND       PRES   REMARKS
SHREVEPORT     PTCLDY    74  70  87 CALM      30.05S
6HR MIN TEMP:  74; 6HR MAX TEMP:  89;

BARKSDALE AFB  CLEAR     74  71  89 N1        30.06R
6HR MIN TEMP:  73; 6HR MAX TEMP:  88;

DTN SHREVEPORT CLEAR     74  71  91 CALM      30.05S
6HR MIN TEMP:  74; 6HR MAX TEMP:  88;


$$

LAZ014-016-230700-
NORTHEAST LOUISIANA

CITY           SKY/WX    TMP DP  RH WIND       PRES   REMARKS
MONROE         CLEAR     73  70  90 CALM      30.05F
6HR MIN TEMP:  73; 6HR MAX TEMP:  88;

TALLULAH       CLOUDY    74  72  93 S3        30.04F FOG
6HR MIN TEMP:  73; 6HR MAX TEMP:  81; 6HR PCP: TRACE;


$$




USA.gov is the U.S. government's official web portal to all federal, state and local government web resources and services.